Location: Ferchesar
(52.6477°N, 12.4298°E)
Time: 17:39:52
(UTC+01:00)

Tiros 1 - Pass Details

Date: 10 December 2021
Orbit: 629 x 664 km, 48.4° (Epoch: 22 January)

Event Time Altitude Azimuth Distance (km) Brightness Sun altitude
Rises 20:40:41 0° 274° (W) 2,932 11.3 -41.6°
Enters shadow 20:42:35 - 268° (W) 2,225 10.5 -41.9°
Reaches altitude 10° 20:43:08 10° 266° (W) 2,027 - -42.0°
Maximum altitude 20:47:24 36° 200° (SSW) 1,011 - -42.6°
Drops below altitude 10° 20:51:42 10° 133° (SE) 2,042 - -43.2°
Sets 20:54:11 0° 125° (SE) 2,957 - -43.6°
